Regional Weather Roundup
Issued by NWS Cleveland, OH

Home | Current Version | Previous Version | Text Only | Print | Product List | Glossary On
Versions: 1 2 3 4 5 6 7 8 9 10 11 12 13 14 15 16 17 18 19 20 21 22 23 24 25 26 27 28 29 30 31 32 33 34 35 36 37 38 39 40 41 42 43 44 45 46 47 48 49 50
000
ASUS41 KCLE 050810
RWRCLE
OHIO REGIONAL WEATHER ROUNDUP
NATIONAL WEATHER SERVICE CLEVELAND, OH
400 AM EDT SAT SEP 05 2015

NOTE: "FAIR" INDICATES FEW OR NO CLOUDS BELOW 12,000 FEET WITH NO
SIGNIFICANT WEATHER AND/OR OBSTRUCTIONS TO VISIBILITY.

OHZ001>008-015>018-024>027-034-035-043-044-050900-
   NORTHWEST OHIO

CITY           SKY/WX    TMP DP  RH WIND       PRES   REMARKS
DEFIANCE       PTCLDY    69  64  84 CALM      30.09S
FINDLAY        PTCLDY    66  63  90 SW3       30.10R
TOLEDO EXPRESS CLEAR     69  65  86 W7        30.08R
TOLEDO EXEC    PTCLDY    68  64  87 S5        30.09R
LIMA           PTCLDY    66  64  93 CALM      30.11R
$$

OHZ009>014-019>023-028>033-038-089-050900-
   NORTHEAST OHIO

CITY           SKY/WX    TMP DP  RH WIND       PRES   REMARKS
CLE-HOPKINS    CLEAR     69  66  90 S6        30.12S
CLE-LAKEFRONT  CLEAR     73  66  78 SE8       30.08S
CUY CO. ARPT   NOT AVBL
LORAIN-ELYRIA  CLEAR     64  62  93 CALM      30.11R
ASHTABULA      CLOUDY    67  66  97 SE7       30.14R
AKRON-CANTON   PTCLDY    68  62  81 SE7       30.13S
WOOSTER        FOG       62  61  96 CALM      30.13S VSB 3/4
MANSFIELD      CLEAR     64  62  93 SE5       30.12R
YOUNGSTOWN     CLOUDY    67  64  90 SE7       30.14R
$$

OHZ042-051>053-060>062-070>072-077>081-050900-
  SOUTHWEST OHIO

CITY           SKY/WX    TMP DP  RH WIND       PRES   REMARKS
CINC-COVINGTON MOCLDY    65  63  93 CALM      30.09R
CINC-LUNKEN    PTCLDY    66  66 100 CALM      30.10R
HAMILTON       PTCLDY    65  64  97 CALM      30.10R FOG
DAYTON         PTCLDY    63  63 100 CALM      30.11S
WRIGHT-PAT AFB CLEAR     63  63 100 NW2       30.10R
DAYTON GENERAL CLEAR     63  61  93 NE5       30.09S
WILMINGTON     CLEAR     64  61  90 CALM      30.11R
$$

OHZ036-037-039>041-045>050-054>059-063>069-073>076-082>088-050900-
  CENTRAL AND SOUTHEAST OHIO

CITY           SKY/WX    TMP DP  RH WIND       PRES   REMARKS
COLUMBUS       PTCLDY    65  64  97 CALM      30.10S
OSU AIRPORT    PTCLDY    63  62  97 E5        30.10S
BOLTON FIELD   PTCLDY    63  63 100 CALM      30.10F
RICKENBACK AFB PTCLDY    64  63  97 E6        30.09S
NEWARK         PTCLDY    62  60  93 CALM      30.11S
MARION         CLEAR     63  60  90 CALM      30.11R
LANCASTER      FOG       62  60  93 CALM      30.12R VSB 3/4
ZANESVILLE     PTCLDY    64  62  93 CALM      30.12R
NEW PHILLY     PTCLDY    63  63 100 CALM      30.13S FOG
$$


USA.gov is the U.S. government's official web portal to all federal, state and local government web resources and services.